Hourly Data Report for November 10, 2019

All times are specified in Local Standard Time (LST). Add 1 hour to adjust for Daylight Saving Time where and when it is observed.

WOODSTOCK NEWBRIDGE
NEW BRUNSWICK
Current Station Operator: ECCC - MSC

46°09'08.000" N
67°32'34.000" W
154.00 m
8105603
71606
EWD

Download Data

Hourly Data (November 2019)
Hourly Data Report for November 10, 2019
TIME Temp Definition
°C
Dew Point Definition
°C
Rel Hum Definition
%
Wind Dir Definition
10's deg

Wind Spd Definition
km/h
Visibility Definition
km
Stn Press Definition
kPa
Hmdx Definition


Wind Chill Definition


Weather Definition


00:00 -3.5 -6.6 80 16 6   100.10   -6 LegendNANA
01:00 -3.3 -6.6 78 17 9   100.07   -7 LegendNANA
02:00 -3.7 -6.8 79 16 7   100.02   -7 LegendNANA
03:00 -5.3 -7.4 85 13 6   99.99   -8 LegendNANA
04:00 -6.5 -8.4 87 13 6   99.92   -9 LegendNANA
05:00 -6.9 -8.3 89 14 4   99.90   -9 LegendNANA
06:00 -5.5 -8.6 79 13 6   99.87   -8 LegendNANA
07:00 -4.0 -7.5 76 14 5   99.82   -6 LegendNANA
08:00 -3.2 -7.1 74 14 4   99.83   -5 LegendNANA
09:00 -2.2 -6.6 72 15 7   99.83   -5 LegendNANA
10:00 -1.2 -6.1 70 17 9   99.75   -4 LegendNANA
11:00 -0.1 -5.4 67 17 11   99.67   -4 LegendNANA
12:00 1.2 -4.9 64 18 11   99.60     LegendNANA
13:00 2.0 -4.5 62 17 11   99.46     LegendNANA
14:00 3.0 -3.8 61 18 12   99.37     LegendNANA
15:00 3.2 -1.5 71 17 7   99.32     LegendNANA
16:00 2.6 -0.7 79 15 2   99.28     LegendNANA
17:00 1.2 -0.4 89 21 1   99.32     LegendNANA
18:00 0.8 -0.4 92   0   99.34     LegendNANA
19:00 2.6 -0.9 78 17 8   99.34     LegendNANA
20:00 2.5 -2.3 71 18 6   99.38     LegendNANA
21:00 2.5 -3.2 66 18 6   99.39     LegendNANA
22:00 2.6 -3.1 66 18 7   99.41     LegendNANA
23:00 2.6 -3.3 65 18 7   99.43     LegendNANA

Notes on Data Quality.

Legend

  • E = Estimated
  • M = Missing
  • NA = Not Available
Date modified: